Location: ?????
(32.9885°N, 35.7043°E)
Time: 00:38:48
(UTC+00:00)

Daily predictions for brighter satellites

Satellite Brightness Start Highest point End
(mag) Time Altitude Azimuth Time Altitude Azimuth Time Altitude Azimuth
ARIANE 5 R/B 3.0 00:00:25 10° NNE 00:05:22 54° E 00:06:34 43° SE
CZ-4C R/B 1.7 00:05:33 79° WSW 00:05:47 83° WNW 00:11:16 10° NNE
NPP 4.5 00:01:33 10° N 00:06:24 35° WNW 00:06:27 35° WNW
Cosmos 1656 4.1 00:06:54 45° W 00:07:23 46° WNW 00:12:49 10° N
ATLAS CENTAUR R/B 3.9 00:07:23 10° NNW 00:11:09 44° NE 00:20:09 10° SE
Cosmos 468 Rocket 4.4 00:12:13 46° WNW 00:12:22 46° WNW 00:17:16 10° N
Cosmos 1898 Rocket 3.9 00:07:47 10° N 00:13:04 62° ENE 00:16:56 18° SSE
Cosmos 1570 Rocket 3.9 00:12:35 61° S 00:13:34 86° ESE 00:18:54 10° NNE
Cosmos 2369 3.6 00:13:58 58° SSW 00:15:06 82° WNW 00:20:46 10° NNE
Cosmos 2208 Rocket 4.0 00:15:11 53° S 00:16:23 75° ESE 00:21:38 10° NNE
Cosmos 1953 Rocket 3.4 00:17:27 77° WSW 00:17:37 78° W 00:22:05 10° N
Cosmos 1709 Rocket 4.4 00:17:08 39° W 00:17:47 40° W 00:23:29 10° N
Cosmos 2360 4.2 00:16:23 49° S 00:17:58 77° ESE 00:23:41 10° NNE
IDEFIX/ARIANE 42P 3.9 00:13:32 10° NNE 00:18:19 35° E 00:21:39 17° SSE
STARLINK-1235 4.5 00:16:51 10° NNW 00:19:44 35° NE 00:22:37 10° ESE
SJ 16-02 1.2 00:17:21 10° NNW 00:21:48 85° WSW 00:22:21 67° S
Cosmos 1937 Rocket 4.2 00:18:16 10° N 00:23:26 54° ENE 00:28:34 10° SSE
Meteor 2-10 Rocket 3.6 00:19:29 10° NNW 00:24:33 52° W 00:24:55 51° WSW
Cosmos 1814 Rocket 4.0 00:30:51 44° SSW 00:32:37 86° WNW 00:37:59 10° NNE
STARLINK 1040 4.3 00:34:59 28° ENE 00:34:59 28° ENE 00:36:30 10° NE
Cosmos 1980 Rocket 2.2 00:31:54 37° S 00:34:10 79° ESE 00:39:48 10° NNE
Cosmos 2219 3.4 00:33:34 10° NNW 00:38:57 46° WSW 00:40:26 38° SW
Cosmos 858 Rocket 4.5 00:38:46 10° NNW 00:44:04 88° E 00:49:21 10° SSE
STARLINK-43 3.2 00:45:27 63° SW 00:46:00 89° SE 00:49:41 10° NE
ERS-2 2.1 00:44:32 32° SSE 00:46:08 83° ENE 00:49:48 10° N
CSL-04 DEB 4.4 00:47:39 33° S 00:49:25 69° WSW 00:53:41 10° NNW
Cosmos 540 Rocket 3.9 00:52:32 33° WSW 00:54:22 46° WNW 00:59:19 10° N
Cosmos 2297 Rocket 2.5 00:49:17 10° NW 00:54:36 43° WSW 00:57:34 23° SSW
SL-16 R/B 4.1 00:56:01 16° W 00:56:01 16° W 00:59:10 10° WNW
Cosmos 2278 4.0 00:54:13 30° SW 00:56:43 52° WNW 01:02:14 10° N
Cosmos 2082 3.6 00:52:41 10° NNW 00:58:21 88° WSW 01:03:57 10° SSE
Cosmos 489 Rocket 4.5 00:55:21 26° SSW 00:58:56 69° WNW 01:05:09 10° NNE
Cosmos 2074 Rocket 4.3 00:55:43 27° SW 00:58:59 51° W 01:05:06 10° N
USA 234 3.2 00:52:55 10° NE 00:59:28 81° NW 01:03:45 23° SW
Landsat 5 4.0 00:56:33 10° SSE 01:00:57 65° ENE 01:05:25 10° N
Cosmos 990 Rocket 4.4 00:57:14 10° NNW 01:02:06 39° W 01:04:44 23° SSW
IRIDIUM 106 4.3 00:59:36 15° S 01:04:00 89° W 01:09:14 10° N
STARLINK-55 3.7 01:03:02 32° S 01:04:01 44° SE 01:07:05 10° ENE
Cosmos 2322 Rocket 3.8 01:00:02 10° SSE 01:04:51 30° ESE 01:09:40 10° NE
Meteor 1-28 Rocket 3.3 01:03:57 29° SSW 01:05:36 52° W 01:09:19 10° NNW
Cosmos 841 Rocket 4.4 01:04:22 24° WSW 01:06:27 33° WNW 01:11:10 10° N
BREEZE-M DEB (TANK) 4.4 01:05:39 19° W 01:08:55 52° NNW 01:24:32 10° NE
CZ-2D R/B 4.1 01:05:23 10° N 01:09:15 40° WNW 01:11:01 26° WSW
Cosmos 2184 Rocket 4.5 01:07:06 23° SW 01:10:29 42° W 01:16:17 10° N
COBE Rocket 4.1 01:07:27 17° S 01:11:00 50° W 01:15:51 10° NNW
In-Cosmos 22 Rocket 4.4 01:06:34 10° S 01:12:20 76° E 01:18:00 10° NNE
STARLINK-1313 4.2 01:12:09 20° S 01:13:36 31° SE 01:16:25 10° ENE
NOSS 2-1 (C) 4.3 01:11:10 14° S 01:13:48 34° ESE 01:16:53 10° NE
Cosmos 372 Rocket 4.3 01:08:51 10° NNW 01:13:58 69° ENE 01:19:05 10° SSE
STARLINK-28 3.0 01:12:40 32° SSW 01:13:58 68° SE 01:17:09 10° NE
ATLAS 3B R/B 4.4 01:10:53 10° WNW 01:12:42 13° W 01:12:42 13° W
STARLINK-1279 4.2 01:13:00 20° S 01:14:30 32° SE 01:17:19 10° ENE
Cosmos 1892 3.0 01:11:37 12° S 01:15:05 69° E 01:18:54 10° NNE
STARLINK-1298 4.5 01:13:36 18° S 01:15:13 27° SE 01:17:54 10° ENE
STARLINK-1293 4.4 01:14:26 18° S 01:16:04 28° SE 01:18:48 10° ENE
STARLINK-1207 4.4 01:14:27 18° S 01:16:14 29° SE 01:19:06 10° ENE
SL-08 R/B 4.2 01:15:14 22° SW 01:17:04 29° W 01:21:08 10° NW
STARLINK-1311 4.0 01:15:39 20° S 01:17:06 33° SE 01:19:49 10° ENE
STARLINK-1266 4.4 01:15:51 18° S 01:17:40 31° SE 01:20:34 10° ENE
STARLINK-1255 4.3 01:16:11 18° S 01:17:53 29° SE 01:20:39 10° ENE
NOSS 2-1 (D) 4.1 01:15:32 14° S 01:18:15 39° ESE 01:21:26 10° NE
COSMOS 2441 4.5 01:13:37 10° NNE 01:18:33 82° ESE 01:23:27 10° S
STARLINK-1284 4.3 01:17:13 18° S 01:19:06 32° SE 01:22:02 10° ENE
STARLINK-1258 4.2 01:18:34 17° S 01:20:30 33° SE 01:23:28 10° ENE
STARLINK-1206 4.5 01:16:57 10° NW 01:21:01 53° NE 01:25:03 10° ESE
STARLINK-1292 4.2 01:19:59 17° S 01:21:58 35° SE 01:24:58 10° ENE
Cosmos 1869 3.3 01:18:45 10° N 01:22:39 81° E 01:26:29 10° S
Cosmos 2221 2.4 01:18:26 10° N 01:22:46 85° W 01:27:07 10° S
CZ-4C R/B 3.2 01:19:55 13° S 01:22:52 51° W 01:26:23 10° NNW
PSLV R/B 3.7 01:18:40 10° NNE 01:22:52 69° ESE 01:27:01 10° S
Cosmos 1400 Rocket 3.5 01:19:22 10° NNW 01:23:07 35° W 01:25:46 17° SSW
STARLINK-1274 4.1 01:21:25 17° S 01:23:28 36° SE 01:26:30 10° ENE
STARLINK-1289 4.0 01:22:52 17° SSW 01:24:58 38° SE 01:28:01 10° ENE
PAYLOAD A 4.3 01:20:52 10° NNE 01:25:30 61° E 01:30:11 10° S
STARLINK-41 3.1 01:24:02 22° SSW 01:25:51 63° SE 01:28:57 10° NE
STARLINK-1205 4.2 01:21:54 10° NW 01:26:00 59° NE 01:30:04 10° SE
Cosmos 1697 Rocket 4.4 01:23:12 13° W 01:26:11 19° WNW 01:30:04 10° NNW
STARLINK-1303 4.0 01:24:15 17° SSW 01:26:25 40° SE 01:29:31 10° ENE
STARLINK-1312 3.9 01:25:42 17° SSW 01:27:55 42° SE 01:31:01 10° ENE
Cosmos 2227 Rocket 3.3 01:25:33 10° NW 01:29:58 24° W 01:33:58 11° SSW
STARLINK-33 2.9 01:28:58 21° SW 01:30:57 87° NW 01:34:09 10° NE
STARLINK-1218 4.0 01:26:51 10° NW 01:30:58 67° NE 01:35:04 10° SE
SL-16 R/B 2.5 01:25:51 10° S 01:31:27 67° ESE 01:37:05 10° NNE
ADEOS II 4.1 01:29:44 10° NW 01:31:42 12° WNW 01:33:40 10° W
Cosmos 2150 Rocket 4.1 01:30:16 10° NNW 01:35:28 83° ENE 01:40:35 10° SSE
Cosmos 2151 4.0 01:31:47 10° SSE 01:35:50 46° E 01:39:55 10° NNE
STARLINK-1254 3.8 01:31:49 10° NW 01:35:57 75° NE 01:40:05 10° SE
MSX 4.0 01:32:24 10° N 01:38:03 59° WNW 01:43:40 10° SSW
STARLINK-66 3.0 01:37:08 17° SW 01:39:25 65° NW 01:42:37 10° NE
H-2A R/B 2.9 01:36:08 10° SSW 01:39:51 29° W 01:43:39 10° NW
STARLINK-1231 3.7 01:36:48 10° NW 01:40:57 84° NE 01:45:05 10° SE
SAR-Lupe-4 3.5 01:38:47 10° S 01:42:21 75° WSW 01:45:56 10° NNW
Cosmos 1315 Rocket 2.7 01:39:15 10° NNW 01:43:07 62° W 01:46:59 10° S
STARLINK-1234 4.5 01:41:22 10° W 01:43:23 16° SW 01:45:23 10° SSW
ARIANE 5 R/B 4.4 01:41:18 10° NNW 01:43:56 14° WNW 01:46:34 10° W
CZ-2C R/B 4.2 01:41:29 10° NNW 01:44:18 21° WNW 01:46:43 12° WSW
STARLINK-1212 4.0 01:42:18 10° WNW 01:44:49 23° SW 01:47:19 10° S
Skynet4D Del rocket 4.1 01:40:30 13° WSW 01:45:07 42° S 01:50:08 10° ESE
STARLINK-1105 4.0 01:42:47 10° WNW 01:45:16 22° SW 01:47:45 10° S
STARLINK-1232 3.6 01:41:47 10° NW 01:45:55 87° SW 01:50:03 10° SE
STARLINK-1247 4.1 01:43:43 10° WNW 01:46:12 22° SW 01:48:42 10° S
STARLINK-1227 4.1 01:44:11 10° WNW 01:46:37 22° SW 01:49:05 10° S
SL-8 Rocket 4.1 01:40:40 10° S 01:46:59 89° W 01:53:20 10° N
STARLINK-1226 4.1 01:45:03 10° WNW 01:47:30 21° SW 01:49:56 10° S
STARLINK-1215 4.2 01:46:02 10° WNW 01:48:27 21° SW 01:50:52 10° S
deb Chang Zheng 4 3.9 01:44:42 10° N 01:48:50 47° WNW 01:52:56 10° SSW
STARLINK-1217 4.2 01:47:51 10° WNW 01:50:12 20° SW 01:52:33 10° S
STARLINK-75 3.2 01:47:43 13° WSW 01:50:31 56° NW 01:53:42 10° NE
STARLINK-1208 3.5 01:46:44 10° NW 01:50:52 78° SW 01:55:00 10° SE
STARLINK-1229 4.2 01:48:47 10° WNW 01:51:08 19° SW 01:53:26 10° S
STARLINK-1270 4.3 01:49:41 10° W 01:51:59 19° SW 01:54:16 10° S
Cosmos 2058 3.7 01:48:53 10° SW 01:52:39 33° W 01:56:27 10° NNW
STARLINK-1189 4.3 01:51:35 10° W 01:53:48 18° SW 01:56:00 10° S
STARLINK-1188 4.4 01:52:30 10° W 01:54:42 18° SW 01:56:51 10° S
CZ-4C R/B 4.3 01:53:44 10° NW 01:55:24 11° NW 01:57:08 10° NNW
STARLINK-1271 3.5 01:51:45 10° NW 01:55:51 69° SW 01:59:58 10° SE
Cosmos 2298 Rocket 4.2 01:51:53 10° NNW 01:57:02 54° WSW 02:02:10 10° S
STARLINK-1191 4.5 01:55:05 10° W 01:57:07 16° SW 01:59:09 10° SSW
Lacrosse 4 Rocket 1.8 01:53:12 10° NW 01:57:11 40° WSW 02:01:05 10° S
IDEFIX/ARIANE 42P 3.9 01:53:32 10° NNW 01:57:39 24° WNW 02:01:44 10° WSW
STARLINK-1221 4.5 01:55:58 10° W 01:57:59 16° SW 02:00:00 10° SSW
SAR-Lupe-1 4.3 01:54:57 10° S 01:58:21 47° W 02:01:46 10° NNW
STARLINK-1301 3.2 01:56:03 10° SW 01:59:22 64° NW 02:02:42 10° NE
STARLINK-1307 3.1 01:57:06 10° SW 02:00:27 73° NW 02:03:49 10° NE
STARLINK-22 3.2 01:57:28 10° SW 02:00:38 59° NW 02:03:47 10° NE
STARLINK-1154 3.6 01:56:45 10° NW 02:00:50 61° SW 02:04:54 10° SSE
Shenzhou-11 Module 3.6 01:59:37 10° SSW 02:01:29 19° SE 02:03:24 10° E
OFEQ 5 4.3 01:59:36 10° ENE 02:02:16 88° NW 02:04:54 10° WSW
STARLINK-58 3.0 01:59:08 10° SW 02:02:17 76° SE 02:05:27 10° NE
STARLINK-1290 3.2 01:59:22 10° SW 02:02:43 69° NW 02:06:04 10° NE
STARLINK-80 3.7 02:00:17 10° WSW 02:03:59 55° NW 02:07:44 10° NE
STARLINK-1297 3.2 02:01:29 10° SW 02:04:50 65° NW 02:08:11 10° NE
STARLINK-1197 3.7 02:01:45 10° NW 02:05:47 54° SW 02:09:48 10° SSE
